User: anonymous   Login
Location: Morehead State University
(38.1872°N, 83.4339°W)
Time: 07:14:59
(UTC-05:00)
Language:

Okean 2 - Orbit

View from above orbital plane
View from above orbital plane
View from above satellite
View from above satellite

Ground track
Ground track

The orbit data is extracted from the following two-line orbital elements,

1 20510U 90018A   18049.80347278 +.00000218 +00000-0 +15683-4 0  9995
2 20510 082.5160 294.6233 0011071 224.4918 180.1706 14.99095647497277
Epoch (UTC): 18 February 2018 19:17:00
Eccentricity: 0.0011071
inclination: 82.5160°
perigee height: 562 km
apogee height: 577 km
right ascension of ascending node: 294.6233°
argument of perigee: 224.4918°
revolutions per day: 14.99095647
mean anomaly at epoch: 180.1706°
orbit number at epoch: 49727

The dashed part of the orbit path shows where the satellite is in the earth's shadow,  

DLR